| time (UTC) | temp C | wind direction | speed KPH | gust KPH | rain 1hr cm | rain 24hr cm | rain mn cm | humidity % | barometer mb |
| 20260505164645 | 9 | 87 | 0.0 | 0.0 | 0.15 | 1.80 | 1.75 | 99 | 1003.7 |
| 20260505164133 | 9 | 73 | 0.0 | 0.0 | 0.18 | 1.80 | 1.75 | 99 | 1003.7 |
| 20260505163621 | 9 | 358 | 0.0 | 0.0 | 0.20 | 1.80 | 1.75 | 99 | 1004.0 |
| 20260505163101 | 8 | 73 | 3.2 | 6.4 | 0.25 | 1.80 | 1.75 | 99 | 1003.9 |
| 20260505162541 | 8 | 113 | 0.0 | 0.0 | 0.28 | 1.83 | 1.75 | 99 | 1004.3 |
| 20260505162034 | 8 | 139 | 0.0 | 0.0 | 0.30 | 1.80 | 1.73 | 99 | 1004.3 |
| 20260505161517 | 8 | 153 | 0.0 | 1.6 | 0.30 | 1.78 | 1.70 | 99 | 1004.2 |
| 20260505160957 | 8 | 91 | 0.0 | 0.0 | 0.30 | 1.78 | 1.70 | 99 | 1004.1 |
| 20260505160434 | 8 | 96 | 0.0 | 0.0 | 0.30 | 1.78 | 1.68 | 99 | 1004.4 |
| 20260505153233 | 8 | 302 | 0.0 | 0.0 | 0.15 | 1.63 | 1.52 | 99 | 1004.9 |
| 20260505152717 | 8 | 265 | 0.0 | 0.0 | 0.13 | 1.57 | 1.47 | 99 | 1005.0 |
| 20260505152157 | 8 | 359 | 0.0 | 0.0 | 0.10 | 1.52 | 1.42 | 99 | 1004.5 |
| 20260505151637 | 8 | 283 | 1.6 | 4.8 | 0.10 | 1.50 | 1.40 | 99 | 1005.0 |
| 20260505151117 | 9 | 7 | 0.0 | 0.0 | 0.10 | 1.52 | 1.40 | 99 | 1004.7 |
| 20260505150557 | 9 | 289 | 0.0 | 0.0 | 0.10 | 1.55 | 1.40 | 99 | 1004.8 |
| 20260505140157 | 12 | 290 | 0.0 | 1.6 | 0.28 | 1.45 | 1.30 | 99 | 1004.2 |
| 20260505124717 | 13 | 256 | 0.0 | 0.0 | 0.00 | 1.17 | 1.02 | 99 | 1003.6 |
| 20260505124157 | 13 | 256 | 0.0 | 0.0 | 0.00 | 1.17 | 1.02 | 99 | 1004.0 |
| 20260505123637 | 13 | 256 | 0.0 | 0.0 | 0.00 | 1.17 | 1.02 | 99 | 1003.9 |
| 20260505123117 | 13 | 256 | 0.0 | 0.0 | 0.00 | 1.17 | 1.02 | 99 | 1003.9 |
| 20260505122557 | 12 | 256 | 0.0 | 0.0 | 0.00 | 1.17 | 1.02 | 99 | 1003.9 |
| 20260505122037 | 12 | 256 | 0.0 | 0.0 | 0.00 | 1.17 | 1.02 | 99 | 1004.0 |
| 20260505121517 | 12 | 256 | 0.0 | 0.0 | 0.00 | 1.17 | 1.02 | 99 | 1004.0 |
| 20260505120958 | 12 | 255 | 0.0 | 0.0 | 0.00 | 1.17 | 1.02 | 99 | 1003.9 |
| 20260505120437 | 12 | 256 | 0.0 | 0.0 | 0.00 | 1.17 | 1.02 | 99 | 1003.8 |
| 20260505115917 | 12 | 256 | 0.0 | 0.0 | 0.00 | 1.17 | 1.02 | 99 | 1003.7 |
| 20260505115358 | 12 | 256 | 0.0 | 0.0 | 0.00 | 1.17 | 1.02 | 99 | 1003.5 |
| 20260505114838 | 12 | 256 | 0.0 | 0.0 | 0.00 | 1.17 | 1.02 | 99 | 1003.6 |
| 20260505114318 | 12 | 256 | 0.0 | 0.0 | 0.00 | 1.17 | 1.02 | 99 | 1003.7 |
| 20260505113757 | 12 | 256 | 0.0 | 0.0 | 0.00 | 1.17 | 1.02 | 99 | 1003.3 |
| 20260505113238 | 12 | 256 | 0.0 | 0.0 | 0.00 | 1.17 | 1.02 | 99 | 1003.1 |
| 20260505112718 | 12 | 256 | 0.0 | 0.0 | 0.00 | 1.17 | 1.02 | 99 | 1002.6 |
| 20260505112158 | 12 | 256 | 0.0 | 0.0 | 0.00 | 1.17 | 1.02 | 99 | 1002.6 |
| 20260505111638 | 12 | 256 | 0.0 | 0.0 | 0.00 | 1.17 | 1.02 | 99 | 1002.4 |
| 20260505111118 | 12 | 256 | 0.0 | 0.0 | 0.00 | 1.17 | 1.02 | 99 | 1002.5 |
| 20260505110557 | 12 | 256 | 0.0 | 0.0 | 0.00 | 1.17 | 1.02 | 99 | 1002.6 |
| 20260505101758 | 12 | 202 | 0.0 | 0.0 | 0.00 | 1.17 | 1.02 | 99 | 1001.6 |
| 20260505101237 | 12 | 203 | 0.0 | 0.0 | 0.00 | 1.17 | 1.02 | 99 | 1001.2 |
| 20260505100717 | 12 | 180 | 0.0 | 0.0 | 0.03 | 1.17 | 1.02 | 99 | 1001.3 |
| 20260505100158 | 12 | 161 | 0.0 | 0.0 | 0.03 | 1.17 | 1.02 | 99 | 1001.2 |
| 20260505095637 | 12 | 216 | 0.0 | 0.0 | 0.03 | 1.17 | 1.02 | 99 | 1001.4 |
| 20260505095102 | 12 | 236 | 4.8 | 6.4 | 0.05 | 1.17 | 1.02 | 99 | 1001.6 |
| 20260505094542 | 12 | 226 | 0.0 | 0.0 | 0.08 | 1.17 | 1.02 | 99 | 1001.3 |
| 20260505094022 | 12 | 177 | 0.0 | 0.0 | 0.10 | 1.17 | 1.02 | 99 | 1000.7 |
| 20260505093446 | 12 | 140 | 0.0 | 1.6 | 0.15 | 1.17 | 1.02 | 99 | 1000.3 |
| 20260505092926 | 12 | 198 | 0.0 | 0.0 | 0.18 | 1.17 | 1.02 | 99 | 1000.9 |
| 20260505092406 | 12 | 197 | 1.6 | 3.2 | 0.20 | 1.17 | 1.02 | 99 | 1001.3 |
| 20260505091327 | 12 | 220 | 1.6 | 3.2 | 0.28 | 1.17 | 1.02 | 99 | 1001.3 |
| 20260505090806 | 12 | 202 | 0.0 | 1.6 | 0.28 | 1.14 | 0.99 | 99 | 1001.2 |
| 20260505090245 | 12 | 164 | 0.0 | 1.6 | 0.30 | 1.14 | 0.99 | 99 | 1001.4 |
| 20260505085726 | 12 | 170 | 6.4 | 8.0 | 0.30 | 1.14 | 0.99 | 99 | 1001.4 |
| 20260505085206 | 12 | 163 | 4.8 | 6.4 | 0.33 | 1.12 | 0.97 | 99 | 1002.1 |
| 20260505084646 | 12 | 237 | 6.4 | 8.0 | 0.36 | 1.09 | 0.94 | 99 | 1002.5 |
| 20260505084126 | 12 | 216 | 6.4 | 9.7 | 0.33 | 1.07 | 0.91 | 99 | 1002.5 |
| 20260505083606 | 12 | 209 | 3.2 | 8.0 | 0.36 | 1.04 | 0.89 | 99 | 1002.3 |
| 20260505083046 | 12 | 193 | 3.2 | 6.4 | 0.36 | 0.99 | 0.84 | 99 | 1002.6 |
| 20260505082526 | 12 | 220 | 4.8 | 6.4 | 0.38 | 0.97 | 0.81 | 99 | 1002.6 |
| 20260505082008 | 12 | 231 | 14.5 | 17.7 | 0.38 | 0.97 | 0.81 | 99 | 1003.0 |
| 20260505081446 | 12 | 233 | 8.0 | 9.7 | 0.33 | 0.89 | 0.74 | 99 | 1002.5 |
| 20260505080934 | 12 | 210 | 0.0 | 0.0 | 0.33 | 0.86 | 0.71 | 99 | 1002.2 |
| 20260505080334 | 12 | 140 | 0.0 | 0.0 | 0.33 | 0.84 | 0.69 | 99 | 1002.0 |
| 20260505075733 | 12 | 130 | 1.6 | 3.2 | 0.36 | 0.84 | 0.69 | 99 | 1001.4 |
| 20260505075133 | 12 | 147 | 0.0 | 0.0 | 0.33 | 0.79 | 0.64 | 99 | 1001.7 |
| 20260505073934 | 12 | 166 | 6.4 | 9.7 | 0.53 | 0.71 | 0.56 | 99 | 1003.0 |
| 20260505073334 | 12 | 207 | 0.0 | 0.0 | 0.48 | 0.66 | 0.51 | 99 | 1003.0 |
| 20260505072734 | 12 | 112 | 0.0 | 0.0 | 0.46 | 0.61 | 0.46 | 99 | 1002.9 |
| 20260505072134 | 12 | 118 | 0.0 | 0.0 | 0.43 | 0.58 | 0.43 | 98 | 1002.5 |
| 20260505071533 | 12 | 307 | 0.0 | 0.0 | 0.41 | 0.58 | 0.41 | 97 | 1002.8 |
| 20260505070934 | 12 | 272 | 1.6 | 1.6 | 0.36 | 0.56 | 0.36 | 97 | 1003.0 |
| 20260505070422 | 12 | 357 | 0.0 | 0.0 | 0.36 | 0.56 | 0.36 | 96 | 1003.1 |
| 20260505065903 | 12 | 357 | 0.0 | 0.0 | 0.36 | 0.56 | 0.36 | 94 | 1002.9 |
| 20260505065342 | 12 | 291 | 0.0 | 0.0 | 0.30 | 0.51 | 0.30 | 91 | 1003.5 |
| 20260505064834 | 13 | 292 | 0.0 | 1.6 | 0.23 | 0.43 | 0.23 | 90 | 1003.6 |
| 20260505064233 | 13 | 296 | 0.0 | 1.6 | 0.05 | 0.25 | 0.05 | 88 | 1004.0 |
| 20260505063633 | 14 | 40 | 1.6 | 3.2 | 0.03 | 0.23 | 0.03 | 85 | 1003.5 |
| 20260505063033 | 15 | 306 | 1.6 | 3.2 | 0.03 | 0.23 | 0.03 | 80 | 1004.0 |
| 20260505062433 | 15 | 21 | 17.7 | 30.6 | 0.00 | 0.20 | 0.00 | 75 | 1003.3 |
| 20260505061834 | 16 | 282 | 1.6 | 3.2 | 0.00 | 0.20 | 0.00 | 77 | 1002.5 |
| 20260505061326 | 17 | 337 | 4.8 | 6.4 | 0.00 | 0.20 | 0.00 | 76 | 1001.9 |
| 20260505060806 | 18 | 111 | 0.0 | 1.6 | 0.00 | 0.20 | 0.00 | 73 | 1002.0 |
| 20260505060246 | 19 | 243 | 11.3 | 16.1 | 0.00 | 0.20 | 0.00 | 67 | 1001.5 |
| 20260505055726 | 19 | 238 | 9.7 | 12.9 | 0.00 | 0.20 | 0.00 | 65 | 999.8 |
| 20260505055206 | 19 | 204 | 8.0 | 9.7 | 0.00 | 0.20 | 0.00 | 64 | 999.4 |
| 20260505054646 | 19 | 229 | 14.5 | 22.5 | 0.00 | 0.20 | 0.00 | 64 | 999.4 |
| 20260505054126 | 20 | 216 | 11.3 | 16.1 | 0.00 | 0.20 | 0.00 | 62 | 998.9 |
| 20260505053606 | 20 | 228 | 14.5 | 17.7 | 0.00 | 0.20 | 0.00 | 61 | 999.0 |
| 20260505053046 | 20 | 216 | 16.1 | 19.3 | 0.00 | 0.20 | 0.00 | 61 | 999.0 |
| 20260505052526 | 20 | 234 | 14.5 | 17.7 | 0.00 | 0.20 | 0.00 | 61 | 999.3 |
| 20260505052007 | 20 | 197 | 17.7 | 22.5 | 0.00 | 0.20 | 0.00 | 60 | 999.0 |
| 20260505051446 | 20 | 232 | 6.4 | 8.0 | 0.00 | 0.20 | 0.00 | 59 | 998.9 |
| 20260505050926 | 20 | 257 | 8.0 | 9.7 | 0.00 | 0.20 | 0.00 | 60 | 999.2 |
| 20260505050406 | 20 | 151 | 12.9 | 16.1 | 0.00 | 0.20 | 0.00 | 60 | 999.3 |
| 20260505041607 | 20 | 240 | 12.9 | 16.1 | 0.00 | 0.20 | 0.20 | 59 | 998.7 |
| 20260505041046 | 21 | 241 | 11.3 | 14.5 | 0.00 | 0.20 | 0.20 | 57 | 998.5 |
| 20260505040526 | 21 | 223 | 16.1 | 19.3 | 0.00 | 0.20 | 0.20 | 57 | 998.7 |
| 20260505040007 | 21 | 228 | 20.9 | 24.1 | 0.00 | 0.20 | 0.20 | 57 | 998.8 |
| 20260505035446 | 21 | 217 | 12.9 | 14.5 | 0.00 | 0.20 | 0.20 | 56 | 999.0 |
| 20260505034926 | 21 | 250 | 16.1 | 20.9 | 0.00 | 0.20 | 0.20 | 58 | 998.9 |
| 20260505034406 | 21 | 216 | 20.9 | 29.0 | 0.00 | 0.20 | 0.20 | 57 | 999.0 |
| 20260505033846 | 21 | 242 | 16.1 | 20.9 | 0.00 | 0.20 | 0.20 | 57 | 999.2 |
| 20260505033326 | 21 | 194 | 20.9 | 27.4 | 0.00 | 0.20 | 0.20 | 57 | 999.2 |
| 20260505032246 | 21 | 202 | 11.3 | 14.5 | 0.00 | 0.20 | 0.20 | 57 | 999.1 |
| 20260505031734 | 20 | 225 | 4.8 | 8.0 | 0.00 | 0.20 | 0.20 | 58 | 998.9 |
| 20260505031134 | 20 | 214 | 22.5 | 24.1 | 0.00 | 0.20 | 0.20 | 57 | 999.0 |
| 20260505030534 | 20 | 235 | 9.7 | 9.7 | 0.00 | 0.20 | 0.20 | 57 | 999.1 |
| 20260505030034 | 20 | 254 | 11.3 | 14.5 | 0.00 | 0.20 | 0.20 | 57 | 999.1 |
| 20260505025434 | 20 | 221 | 3.2 | 6.4 | 0.00 | 0.20 | 0.20 | 60 | 999.3 |
| 20260505024834 | 20 | 215 | 9.7 | 14.5 | 0.00 | 0.20 | 0.20 | 58 | 999.3 |
| 20260505024234 | 20 | 235 | 9.7 | 14.5 | 0.00 | 0.20 | 0.20 | 58 | 999.2 |
| 20260505023634 | 20 | 243 | 9.7 | 9.7 | 0.00 | 0.20 | 0.20 | 59 | 999.3 |
| 20260505023034 | 20 | 231 | 6.4 | 9.7 | 0.00 | 0.20 | 0.20 | 59 | 999.3 |
| 20260505022434 | 20 | 211 | 6.4 | 8.0 | 0.00 | 0.20 | 0.20 | 59 | 999.2 |
| 20260505021834 | 20 | 157 | 1.6 | 4.8 | 0.00 | 0.20 | 0.20 | 57 | 999.3 |
| 20260505021234 | 20 | 219 | 4.8 | 6.4 | 0.00 | 0.20 | 0.20 | 57 | 999.1 |
| 20260505020634 | 20 | 232 | 8.0 | 9.7 | 0.00 | 0.20 | 0.20 | 57 | 999.1 |
| 20260505020034 | 20 | 242 | 14.5 | 17.7 | 0.00 | 0.20 | 0.20 | 56 | 998.8 |
| 20260505015434 | 20 | 238 | 3.2 | 4.8 | 0.00 | 0.20 | 0.20 | 56 | 998.9 |
| 20260505014834 | 20 | 224 | 4.8 | 6.4 | 0.00 | 0.20 | 0.20 | 57 | 998.6 |
| 20260505014234 | 20 | 227 | 1.6 | 3.2 | 0.00 | 0.20 | 0.20 | 57 | 998.6 |
| 20260505013726 | 20 | 209 | 6.4 | 8.0 | 0.00 | 0.20 | 0.20 | 56 | 998.5 |
| 20260505013207 | 20 | 223 | 3.2 | 4.8 | 0.00 | 0.20 | 0.20 | 56 | 998.7 |
| 20260505012647 | 20 | 168 | 6.4 | 8.0 | 0.00 | 0.20 | 0.20 | 55 | 998.6 |
| 20260505012134 | 20 | 228 | 9.7 | 12.9 | 0.00 | 0.20 | 0.20 | 55 | 998.6 |
| 20260505010934 | 21 | 184 | 3.2 | 4.8 | 0.00 | 0.20 | 0.20 | 54 | 998.7 |
| 20260505010334 | 21 | 225 | 9.7 | 12.9 | 0.00 | 0.20 | 0.20 | 54 | 998.6 |
| 20260505005759 | 21 | 231 | 4.8 | 6.4 | 0.00 | 0.20 | 0.20 | 55 | 998.5 |
| 20260505005239 | 21 | 239 | 4.8 | 4.8 | 0.00 | 0.20 | 0.20 | 55 | 998.4 |
| 20260505004734 | 21 | 211 | 3.2 | 4.8 | 0.00 | 0.20 | 0.20 | 54 | 998.5 |
| 20260505004134 | 21 | 245 | 9.7 | 12.9 | 0.00 | 0.20 | 0.20 | 54 | 998.1 |
| 20260505003534 | 21 | 229 | 8.0 | 9.7 | 0.00 | 0.20 | 0.20 | 53 | 998.2 |
| 20260505002934 | 21 | 240 | 4.8 | 6.4 | 0.00 | 0.20 | 0.20 | 54 | 998.2 |
| 20260505002434 | 21 | 183 | 4.8 | 8.0 | 0.00 | 0.20 | 0.20 | 52 | 998.1 |
| 20260505001834 | 21 | 209 | 6.4 | 6.4 | 0.00 | 0.20 | 0.20 | 53 | 998.2 |
| 20260505001234 | 22 | 213 | 6.4 | 12.9 | 0.00 | 0.20 | 0.20 | 52 | 998.3 |
| 20260505000134 | 22 | 216 | 4.8 | 6.4 | 0.00 | 0.20 | 0.20 | 52 | 998.5 |
| 20260504235534 | 22 | 231 | 11.3 | 14.5 | 0.00 | 0.20 | 0.20 | 51 | 998.3 |
| 20260504234934 | 22 | 208 | 6.4 | 8.0 | 0.00 | 0.20 | 0.20 | 52 | 998.4 |
| 20260504234334 | 22 | 218 | 8.0 | 9.7 | 0.00 | 0.20 | 0.20 | 50 | 998.4 |
| 20260504233734 | 22 | 205 | 9.7 | 12.9 | 0.00 | 0.20 | 0.20 | 50 | 998.3 |
| 20260504233134 | 23 | 171 | 4.8 | 8.0 | 0.00 | 0.20 | 0.20 | 49 | 998.4 |
| 20260504232534 | 23 | 230 | 20.9 | 29.0 | 0.00 | 0.20 | 0.20 | 48 | 998.3 |
| 20260504231934 | 23 | 197 | 6.4 | 12.9 | 0.00 | 0.20 | 0.20 | 52 | 998.6 |
| 20260504231334 | 23 | 213 | 6.4 | 6.4 | 0.00 | 0.20 | 0.20 | 51 | 998.7 |
| 20260504230734 | 23 | 219 | 14.5 | 16.1 | 0.00 | 0.20 | 0.20 | 51 | 998.7 |
| 20260504230134 | 23 | 222 | 14.5 | 17.7 | 0.00 | 0.20 | 0.20 | 51 | 998.9 |
| 20260504225634 | 23 | 164 | 6.4 | 8.0 | 0.00 | 0.20 | 0.20 | 51 | 998.5 |
| 20260504225119 | 23 | 222 | 11.3 | 16.1 | 0.00 | 0.20 | 0.20 | 51 | 998.9 |
| 20260504224559 | 23 | 246 | 4.8 | 6.4 | 0.00 | 0.20 | 0.20 | 52 | 998.8 |
| 20260504224034 | 23 | 230 | 17.7 | 22.5 | 0.00 | 0.20 | 0.20 | 51 | 998.9 |
| 20260504223519 | 23 | 203 | 11.3 | 12.9 | 0.00 | 0.20 | 0.20 | 51 | 998.8 |
| 20260504222958 | 23 | 220 | 9.7 | 16.1 | 0.00 | 0.20 | 0.20 | 51 | 999.0 |
| 20260504221934 | 23 | 227 | 6.4 | 9.7 | 0.00 | 0.20 | 0.20 | 52 | 998.9 |
| 20260504221415 | 23 | 214 | 14.5 | 19.3 | 0.00 | 0.20 | 0.20 | 53 | 999.3 |
| 20260504220855 | 23 | 225 | 9.7 | 9.7 | 0.00 | 0.20 | 0.20 | 52 | 999.2 |
| 20260504220334 | 23 | 221 | 3.2 | 8.0 | 0.00 | 0.20 | 0.20 | 53 | 999.4 |
| 20260504215834 | 23 | 225 | 6.4 | 6.4 | 0.00 | 0.20 | 0.20 | 53 | 999.3 |
| 20260504215327 | 23 | 241 | 12.9 | 16.1 | 0.00 | 0.20 | 0.20 | 55 | 999.5 |
| 20260504214807 | 23 | 215 | 14.5 | 16.1 | 0.00 | 0.20 | 0.20 | 53 | 999.4 |
| 20260504214247 | 23 | 224 | 11.3 | 14.5 | 0.00 | 0.20 | 0.20 | 54 | 999.4 |
| 20260504213727 | 23 | 235 | 12.9 | 22.5 | 0.00 | 0.20 | 0.20 | 52 | 999.4 |
| 20260504213207 | 23 | 238 | 12.9 | 19.3 | 0.00 | 0.20 | 0.20 | 53 | 999.4 |
| 20260504212647 | 23 | 167 | 14.5 | 24.1 | 0.00 | 0.20 | 0.20 | 51 | 999.3 |
| 20260504212127 | 23 | 251 | 11.3 | 17.7 | 0.00 | 0.20 | 0.20 | 54 | 999.5 |
| 20260504211607 | 23 | 206 | 11.3 | 20.9 | 0.00 | 0.20 | 0.20 | 54 | 999.6 |
| 20260504211047 | 23 | 210 | 14.5 | 17.7 | 0.00 | 0.20 | 0.20 | 55 | 999.8 |
| 20260504210527 | 23 | 257 | 9.7 | 12.9 | 0.00 | 0.20 | 0.20 | 57 | 999.9 |
| 20260504210008 | 23 | 211 | 11.3 | 17.7 | 0.00 | 0.20 | 0.20 | 55 | 999.8 |
| 20260504205447 | 23 | 248 | 20.9 | 27.4 | 0.00 | 0.20 | 0.20 | 54 | 999.8 |
| 20260504204927 | 23 | 232 | 9.7 | 14.5 | 0.00 | 0.20 | 0.20 | 57 | 999.9 |
| 20260504204407 | 23 | 207 | 1.6 | 3.2 | 0.00 | 0.20 | 0.20 | 62 | 1000.1 |
| 20260504203847 | 22 | 254 | 9.7 | 12.9 | 0.00 | 0.20 | 0.20 | 62 | 1000.2 |
| 20260504203327 | 22 | 242 | 9.7 | 17.7 | 0.00 | 0.20 | 0.20 | 61 | 1000.4 |
| 20260504202751 | 22 | 230 | 9.7 | 12.9 | 0.00 | 0.20 | 0.20 | 63 | 1000.4 |
| 20260504202231 | 22 | 147 | 9.7 | 12.9 | 0.00 | 0.20 | 0.20 | 62 | 1000.4 |
| 20260504201711 | 22 | 197 | 6.4 | 12.9 | 0.00 | 0.20 | 0.20 | 62 | 1000.5 |
| 20260504201134 | 21 | 209 | 3.2 | 4.8 | 0.00 | 0.20 | 0.20 | 64 | 1000.5 |
| 20260504200615 | 21 | 216 | 6.4 | 6.4 | 0.00 | 0.20 | 0.20 | 65 | 1001.0 |
| 20260504200055 | 21 | 165 | 8.0 | 12.9 | 0.00 | 0.20 | 0.20 | 66 | 1001.1 |
| 20260504195534 | 21 | 185 | 4.8 | 6.4 | 0.00 | 0.20 | 0.20 | 68 | 1001.0 |
| 20260504195015 | 21 | 236 | 14.5 | 19.3 | 0.00 | 0.20 | 0.20 | 68 | 1001.3 |
| 20260504194455 | 21 | 164 | 8.0 | 9.7 | 0.00 | 0.20 | 0.20 | 67 | 1001.0 |
| 20260504193934 | 21 | 239 | 6.4 | 9.7 | 0.00 | 0.20 | 0.20 | 66 | 1001.0 |
| 20260504193415 | 21 | 182 | 8.0 | 14.5 | 0.00 | 0.20 | 0.20 | 68 | 1001.2 |
| 20260504192855 | 21 | 222 | 3.2 | 4.8 | 0.00 | 0.20 | 0.20 | 72 | 1001.3 |
| 20260504192334 | 21 | 151 | 4.8 | 6.4 | 0.00 | 0.20 | 0.20 | 77 | 1001.1 |
| 20260504191815 | 21 | 131 | 1.6 | 3.2 | 0.00 | 0.20 | 0.20 | 77 | 1001.3 |
| 20260504191255 | 21 | 217 | 1.6 | 1.6 | 0.00 | 0.20 | 0.20 | 79 | 1001.3 |
| 20260504190719 | 21 | 124 | 6.4 | 8.0 | 0.00 | 0.20 | 0.20 | 80 | 1001.3 |
| 20260504190159 | 20 | 111 | 6.4 | 8.0 | 0.00 | 0.20 | 0.20 | 80 | 1001.2 |
| 20260504185639 | 19 | 178 | 0.0 | 1.6 | 0.00 | 0.20 | 0.20 | 83 | 1001.4 |
| 20260504185119 | 18 | 140 | 0.0 | 1.6 | 0.00 | 0.20 | 0.20 | 85 | 1001.4 |
| 20260504184559 | 18 | 129 | 0.0 | 1.6 | 0.00 | 0.20 | 0.20 | 85 | 1001.2 |
| 20260504184039 | 18 | 136 | 0.0 | 1.6 | 0.00 | 0.20 | 0.20 | 86 | 1001.6 |
| 20260504183519 | 18 | 136 | 3.2 | 4.8 | 0.00 | 0.20 | 0.20 | 87 | 1001.5 |
| 20260504182959 | 17 | 136 | 0.0 | 0.0 | 0.00 | 0.20 | 0.20 | 87 | 1001.8 |
| 20260504182439 | 18 | 136 | 6.4 | 6.4 | 0.00 | 0.20 | 0.20 | 87 | 1001.5 |
| 20260504181919 | 18 | 217 | 0.0 | 1.6 | 0.00 | 0.20 | 0.20 | 86 | 1002.1 |
| 20260504181359 | 18 | 123 | 3.2 | 4.8 | 0.00 | 0.20 | 0.20 | 86 | 1001.8 |
| 20260504180840 | 18 | 186 | 1.6 | 3.2 | 0.00 | 0.20 | 0.20 | 86 | 1001.6 |
| 20260504180319 | 18 | 141 | 3.2 | 4.8 | 0.03 | 0.20 | 0.20 | 87 | 1001.6 |
| 20260504175759 | 18 | 134 | 11.3 | 14.5 | 0.03 | 0.20 | 0.20 | 88 | 1002.0 |
| 20260504175239 | 17 | 203 | 1.6 | 3.2 | 0.05 | 0.20 | 0.20 | 91 | 1002.0 |
| 20260504174719 | 17 | 121 | 0.0 | 1.6 | 0.05 | 0.20 | 0.20 | 94 | 1001.9 |
| 20260504174159 | 16 | 121 | 1.6 | 3.2 | 0.05 | 0.20 | 0.20 | 96 | 1002.1 |
| 20260504173120 | 15 | 176 | 0.0 | 0.0 | 0.05 | 0.20 | 0.20 | 98 | 1002.4 |
| 20260504172559 | 15 | 176 | 0.0 | 0.0 | 0.08 | 0.20 | 0.20 | 98 | 1002.4 |
| 20260504172039 | 14 | 176 | 0.0 | 0.0 | 0.08 | 0.20 | 0.20 | 98 | 1002.8 |
| 20260504171519 | 14 | 176 | 0.0 | 0.0 | 0.08 | 0.20 | 0.20 | 97 | 1003.2 |
| 20260504171000 | 14 | 176 | 0.0 | 0.0 | 0.08 | 0.20 | 0.20 | 96 | 1003.0 |
| 20260504170439 | 14 | 176 | 0.0 | 0.0 | 0.10 | 0.20 | 0.20 | 96 | 1003.8 |